TimeCST,TemperatureF,Dew PointF,Humidity,Sea Level PressureIn,VisibilityMPH,Wind Direction,Wind SpeedMPH,Gust SpeedMPH,PrecipitationIn,Events,Conditions,WindDirDegrees,DateUTC
12:53 AM,55.9,46.9,72,30.21,10.0,NE,10.4,-,N/A,,Clear,40,2013-01-22 06:53:00
1:53 AM,55.0,45.0,69,30.22,10.0,NE,10.4,-,N/A,,Clear,50,2013-01-22 07:53:00
2:53 AM,54.0,44.1,69,30.22,10.0,East,9.2,-,N/A,,Clear,80,2013-01-22 08:53:00
3:53 AM,53.1,41.0,64,30.24,10.0,ENE,13.8,-,N/A,,Clear,70,2013-01-22 09:53:00
4:53 AM,52.0,39.9,63,30.25,10.0,ENE,15.0,-,N/A,,Clear,60,2013-01-22 10:53:00
5:53 AM,50.0,37.0,61,30.27,10.0,ENE,13.8,-,N/A,,Clear,60,2013-01-22 11:53:00
6:53 AM,50.0,36.0,59,30.29,10.0,East,11.5,-,N/A,,Clear,80,2013-01-22 12:53:00
7:53 AM,50.0,34.0,54,30.32,10.0,ENE,16.1,-,N/A,,Clear,60,2013-01-22 13:53:00
8:53 AM,50.0,34.0,54,30.35,10.0,ENE,15.0,-,N/A,,Clear,60,2013-01-22 14:53:00
9:53 AM,52.0,33.1,49,30.35,10.0,ENE,12.7,-,N/A,,Clear,70,2013-01-22 15:53:00
10:53 AM,54.0,34.0,47,30.35,10.0,East,9.2,-,N/A,,Clear,90,2013-01-22 16:53:00
11:53 AM,57.9,34.0,41,30.34,10.0,East,8.1,-,N/A,,Clear,90,2013-01-22 17:53:00
12:53 PM,57.9,36.0,44,30.31,10.0,East,8.1,-,N/A,,Clear,100,2013-01-22 18:53:00
1:53 PM,59.0,36.0,42,30.29,10.0,East,6.9,-,N/A,,Clear,90,2013-01-22 19:53:00
2:53 PM,60.1,37.0,42,30.29,10.0,East,5.8,-,N/A,,Clear,90,2013-01-22 20:53:00
3:53 PM,61.0,37.0,41,30.29,10.0,East,4.6,-,N/A,,Clear,100,2013-01-22 21:53:00
4:53 PM,60.1,37.9,44,30.30,10.0,SE,4.6,-,N/A,,Clear,130,2013-01-22 22:53:00
5:53 PM,57.0,39.9,53,30.30,10.0,ESE,3.5,-,N/A,,Clear,120,2013-01-22 23:53:00
6:53 PM,54.0,43.0,66,30.31,10.0,SE,4.6,-,N/A,,Clear,130,2013-01-23 00:53:00
7:53 PM,53.1,43.0,69,30.32,10.0,SSE,6.9,-,N/A,,Clear,160,2013-01-23 01:53:00
8:53 PM,52.0,43.0,71,30.32,10.0,SSE,5.8,-,N/A,,Clear,150,2013-01-23 02:53:00
9:53 PM,51.1,43.0,74,30.33,10.0,SSE,6.9,-,N/A,,Clear,160,2013-01-23 03:53:00
10:53 PM,50.0,43.0,77,30.34,10.0,South,5.8,-,N/A,,Clear,170,2013-01-23 04:53:00
11:53 PM,50.0,42.8,76,30.35,10.0,South,5.8,-,N/A,,Clear,170,2013-01-23 05:53:00